Regional Weather Roundup
Issued by NWS

Home | Current Version | Previous Version | Graphics & Text | Print | Product List | Glossary On
Versions: 1 2 3 4 5 6 7 8 9 10 11 12 13 14 15 16 17 18 19 20 21 22 23 24 25 26 27 28 29 30 31 32 33 34 35 36 37 38 39 40 41 42 43 44 45 46 47 48 49 50
000
ASUS43 KTOP 220859
RWRKS

WEATHER ROUNDUP FOR KANSAS
NATIONAL WEATHER SERVICE GOODLAND KS
400 AM CDT TUE JUL 22 2014

NOTE:  "FAIR" INDICATES FEW OR NO CLOUDS BELOW 12,000 FEET WITH NO
SIGNIFICANT WEATHER AND/OR OBSTRUCTIONS TO VISIBILITY.

KSZ001>006-013>018-027>032-041>047-221000-
NORTHWEST KANSAS

CITY           SKY/WX    TMP DP  RH WIND       PRES   REMARKS
GOODLAND       CLEAR     71  59  65 SW13      30.08S
HAYS           CLEAR     68  59  73 S5        30.01S
HILL CITY      CLEAR     73  60  63 S6        30.02R
RUSSELL        PTCLDY    71  67  87 SE9       29.99S
$$

KSZ061>065-074>080-084>089-221000-
SOUTHWEST KANSAS

CITY           SKY/WX    TMP DP  RH WIND       PRES   REMARKS
DODGE CITY     CLOUDY    77  59  53 SW9       30.02F
ELKHART          N/A     69  62  78 SW10        N/A
GARDEN CITY    PTCLDY    70  63  78 W6        30.03F
GREAT BEND     MOCLDY    73  66  78 SE3       30.01R
LIBERAL        PTCLDY    70  64  83 SW9       30.08R
PRATT          CLOUDY    73  68  83 CALM      30.03R
$$

KSZ066>073-081>083-090>101-221000-
SOUTHEAST KANSAS

CITY           SKY/WX    TMP DP  RH WIND       PRES   REMARKS
CHANUTE        PTCLDY    75  71  87 S8        30.02S
COFFEYVILLE    MOCLDY    74  71  91 S6        30.02S FOG
HUTCHINSON     CLOUDY    78  72  81 S7        30.00S
MEDICINE LODGE   N/A     78  71  79 SE6       30.00R
NEWTON         CLOUDY    79  70  73 SW12      30.04R
PARSONS        PTCLDY    76  70  82 S5        30.04S
WICHITA INTL   CLOUDY    77  74  90 S8        30.00S
WICHITA JABRA  CLOUDY    78  74  87 S8        30.01R
WINFIELD       CLOUDY    78  75  90 S9        30.02R
$$

KSZ007>012-019>026-033>040-048>060-102>105-221000-
NORTHEAST KANSAS

CITY           SKY/WX    TMP DP  RH WIND       PRES   REMARKS
CONCORDIA      CLEAR     79  72  79 SW12      29.97S
EMPORIA        MOCLDY    75  74  96 S10       30.00S FOG
LAWRENCE       CLEAR     78  74  87 S7        29.98S
MANHATTAN      PTCLDY    78  74  87 SW6       29.97R
OLATHE IND     CLEAR     75  73  93 S9        30.00S
OLATHE EXE     CLEAR     75  73  93 S7        30.00R
SALINA         PTCLDY    80  73  79 S8        29.98S
TOPEKA BILLARD PTCLDY    80  75  84 VRB6      29.97S
TOPEKA FORBES  PTCLDY    78  74  87 S12       29.98S
$$



USA.gov is the U.S. government's official web portal to all federal, state and local government web resources and services.